This is the latest recevied weather packets stored in our database for station/object K3RUP-1. If no packets are shown the sender has not sent any weather packets the latest 10 day(s).
| Time | Temp. | Humidity | Pressure | Rain* | Wind** | Luminosity | Snow |
|---|---|---|---|---|---|---|---|
| 1777634095 | 6.11° C | 94% | 1014.7 hPa | 0 mm | - | 20 W/m² | - |
| 1777633791 | 5.56° C | 94% | 1014.7 hPa | 0 mm | - | 22 W/m² | - |
| 1777633490 | 5.56° C | 94% | 1014.8 hPa | 0 mm | - | 23 W/m² | - |
| 1777633187 | 5.56° C | 94% | 1014.9 hPa | 0 mm | - | 23 W/m² | - |
| 1777632884 | 5.56° C | 94% | 1014.7 hPa | 0 mm | - | 24 W/m² | - |
| 1777632580 | 5° C | 94% | 1014.7 hPa | 0 mm | - | 23 W/m² | - |
| 1777632277 | 5° C | 94% | 1014.5 hPa | 0 mm | - | 19 W/m² | - |
| 1777631974 | 5° C | 95% | 1014.5 hPa | 0 mm | - | 15 W/m² | - |
| 1777631672 | 5° C | 94% | 1014.4 hPa | 0 mm | - | 11 W/m² | - |
| 1777631369 | 4.44° C | 95% | 1014.5 hPa | 0 mm | - | 9 W/m² | - |
| 1777631066 | 4.44° C | 95% | 1014.4 hPa | 0 mm | - | 6 W/m² | - |
| 1777630762 | 4.44° C | 94% | 1014.6 hPa | 0 mm | - | 4 W/m² | - |
| 1777630459 | 4.44° C | 94% | 1014.5 hPa | 0 mm | - | 2 W/m² | - |
| 1777630156 | 4.44° C | 94% | 1014.6 hPa | 0 mm | - | 0 W/m² | - |
| 1777629854 | 4.44° C | 94% | 1014.3 hPa | 0 mm | - | 0 W/m² | - |
| 1777629551 | 4.44° C | 94% | 1014.5 hPa | 0 mm | - | 0 W/m² | - |
| 1777629247 | 4.44° C | 94% | 1014.3 hPa | 0 mm | - | 0 W/m² | - |
| 1777628943 | 4.44° C | 94% | 1014.4 hPa | 0 mm | - | 0 W/m² | - |
| 1777628640 | 4.44° C | 94% | 1014.5 hPa | 0 mm | - | 0 W/m² | - |
| 1777628336 | 4.44° C | 93% | 1014.6 hPa | 0 mm | - | 0 W/m² | - |
| 1777628032 | 4.44° C | 93% | 1014.4 hPa | 0 mm | - | 0 W/m² | - |
| 1777627732 | 4.44° C | 93% | 1014.3 hPa | 0 mm | - | 0 W/m² | - |
| 1777627431 | 4.44° C | 93% | 1014.4 hPa | 0 mm | - | 0 W/m² | - |
| 1777627127 | 4.44° C | 93% | 1014.2 hPa | 0 mm | - | 0 W/m² | - |
| 1777626824 | 5° C | 93% | 1014.3 hPa | 0 mm | - | 0 W/m² | - |
* Rain latest hour (hover to see other rain measurements)
** Current wind speed in m/s (hover to see current wind gust speed)